#timestamp,LO_Frequency,Hit,Temp,Hum 
1487595615.5,286046988.8,N,0.0,0.0
1487595635.3,286046989.0,N,0.0,0.0
1487595655.1,286046987.1,N,0.0,0.0
1487595675.9,286046987.8,N,0.0,0.0
1487595695.7,286046985.5,Y,0.0,0.0
1487595715.5,286046995.2,N,0.0,0.0
1487595735.4,286046996.3,N,0.0,0.0
1487595755.2,286046995.9,N,0.0,0.0
1487595775.0,286046994.5,N,0.0,0.0
1487595775.9,286046994.5,N,0.0,0.0
1487595795.8,286046991.7,N,0.0,0.0
1487595815.6,286046991.8,N,0.0,0.0
1487595835.4,286046992.5,N,0.0,0.0
1487595855.3,286046993.0,N,0.0,0.0
1487595875.1,286046990.8,N,0.0,0.0
1487595895.8,286046991.2,N,0.0,0.0
1487595915.7,286046988.7,N,0.0,0.0
1487595935.5,286046991.0,N,0.0,0.0
1487595955.3,286046993.1,N,0.0,0.0
1487595975.2,286046991.3,N,0.0,0.0
1487595995.9,286046991.0,N,0.0,0.0
1487596015.7,286046990.6,N,0.0,0.0
1487596035.6,286046993.2,N,0.0,0.0
1487596055.4,286046992.7,N,0.0,0.0
1487596075.2,286046992.6,N,0.0,0.0
1487596095.1,286046992.9,N,0.0,0.0
1487596096.0,286046992.9,N,0.0,0.0
1487596115.8,286046992.4,N,0.0,0.0
1487596135.6,286046992.4,N,0.0,0.0
1487596155.5,286046993.0,N,0.0,0.0
1487596175.3,286046992.1,N,0.0,0.0
1487596195.1,286046994.2,N,0.0,0.0
1487596215.9,286046992.1,N,0.0,0.0
1487596235.7,286046990.1,Y,0.0,0.0
1487596255.5,286047004.1,N,0.0,0.0
1487596275.4,286047002.3,N,0.0,0.0
1487596295.2,286047002.5,N,0.0,0.0
1487596315.0,286047003.3,N,0.0,0.0
1487596315.9,286047003.3,N,0.0,0.0
1487596335.8,286047004.2,N,0.0,0.0
1487596355.6,286047005.8,N,0.0,0.0
1487596375.4,286047006.2,N,0.0,0.0
1487596395.3,286047005.8,N,0.0,0.0
1487596415.1,286047005.1,N,0.0,0.0
1487596416.0,286047005.1,N,0.0,0.0
1487596435.8,286047004.6,N,0.0,0.0
1487596455.6,286047008.3,N,0.0,0.0
1487596475.5,286047008.0,N,0.0,0.0
1487596495.3,286047006.2,N,0.0,0.0
1487596515.1,286047008.4,N,0.0,0.0
1487596535.9,286047010.6,N,0.0,0.0
1487596555.7,286047011.9,N,0.0,0.0
1487596575.5,286047013.6,N,0.0,0.0
1487596595.4,286047012.4,N,0.0,0.0
1487596615.2,286047013.3,N,0.0,0.0
1487596635.0,286047015.6,N,0.0,0.0
1487596635.9,286047015.6,N,0.0,0.0
1487596655.8,286047015.5,N,0.0,0.0
1487596675.9,286047014.7,N,0.0,0.0
1487596695.7,286047014.6,N,0.0,0.0
1487596715.6,286047013.0,N,0.0,0.0
1487596735.4,286047014.4,N,0.0,0.0
1487596755.2,286047014.5,N,0.0,0.0
1487596775.0,286047012.5,N,0.0,0.0
1487596776.0,286047012.5,N,0.0,0.0
1487596795.8,286047015.1,N,0.0,0.0
1487596815.6,286047017.1,N,0.0,0.0
1487596835.4,286047017.0,N,0.0,0.0
1487596855.3,286047017.0,N,0.0,0.0
1487596875.1,286047017.4,N,0.0,0.0
1487596895.8,286047017.6,N,0.0,0.0
1487596915.7,286047018.4,N,0.0,0.0
1487596935.5,286047016.1,N,0.0,0.0
1487596955.3,286047020.4,N,0.0,0.0
1487596975.2,286047020.3,N,0.0,0.0
1487596995.9,286047020.4,N,0.0,0.0
1487597015.7,286047021.5,N,0.0,0.0
1487597035.6,286047021.4,N,0.0,0.0
1487597055.4,286047019.2,N,0.0,0.0
1487597075.2,286047021.7,N,0.0,0.0
1487597095.1,286047020.6,N,0.0,0.0
1487597096.0,286047020.6,N,0.0,0.0
1487597115.8,286047022.8,Y,0.0,0.0
1487597135.6,286047011.2,N,0.0,0.0
1487597155.5,286047012.0,N,0.0,0.0
1487597175.3,286047011.7,N,0.0,0.0
1487597195.1,286047010.6,N,0.0,0.0
1487597215.9,286047010.0,N,0.0,0.0
1487597235.7,286047012.1,N,0.0,0.0
1487597255.5,286047010.9,N,0.0,0.0
1487597275.4,286047015.0,N,0.0,0.0
1487597295.2,286047014.5,N,0.0,0.0
1487597315.0,286047015.2,Y,0.0,0.0
1487597315.9,286047015.2,Y,0.0,0.0
1487597335.8,286046986.0,N,0.0,0.0
1487597355.6,286046988.1,N,0.0,0.0
1487597375.4,286046988.0,N,0.0,0.0
1487597395.3,286046991.1,N,0.0,0.0
1487597415.1,286046989.3,N,0.0,0.0
1487597435.8,286046991.2,N,0.0,0.0
1487597455.7,286046987.2,N,0.0,0.0
1487597475.5,286046990.4,N,0.0,0.0
1487597495.3,286046988.9,N,0.0,0.0
1487597515.2,286046990.8,N,0.0,0.0
1487597535.9,286046993.2,N,0.0,0.0
1487597555.7,286046993.2,N,0.0,0.0
1487597575.6,286046993.4,N,0.0,0.0
1487597595.4,286046995.5,N,0.0,0.0
1487597615.2,286046995.5,N,0.0,0.0
1487597635.1,286046995.3,N,0.0,0.0
1487597636.0,286046995.3,N,0.0,0.0
1487597655.8,286046995.1,N,0.0,0.0
1487597675.6,286046997.6,N,0.0,0.0
1487597695.5,286046995.9,N,0.0,0.0
1487597715.3,286046994.3,N,0.0,0.0
1487597735.1,286046993.3,N,0.0,0.0
1487597755.8,286046999.6,N,0.0,0.0
1487597775.7,286046996.8,N,0.0,0.0
1487597795.5,286046994.9,N,0.0,0.0
1487597815.3,286046997.8,N,0.0,0.0
1487597835.2,286047000.2,N,0.0,0.0
1487597855.1,286046998.7,N,0.0,0.0
1487597875.9,286047001.9,N,0.0,0.0
1487597895.7,286047002.2,N,0.0,0.0
1487597915.5,286047002.0,N,0.0,0.0
1487597935.4,286047004.0,N,0.0,0.0
1487597955.2,286047000.0,N,0.0,0.0
1487597975.0,286047001.7,N,0.0,0.0
1487597975.9,286047001.7,N,0.0,0.0
1487597995.8,286047004.8,N,0.0,0.0
1487598015.6,286047004.2,N,0.0,0.0
1487598035.4,286047004.1,N,0.0,0.0
1487598055.3,286047001.6,N,0.0,0.0
1487598075.1,286047002.8,N,0.0,0.0
1487598076.0,286047002.8,N,0.0,0.0
1487598095.8,286047002.3,N,0.0,0.0
1487598115.7,286047004.7,N,0.0,0.0
1487598135.5,286047005.0,N,0.0,0.0
1487598155.3,286047005.4,N,0.0,0.0
1487598175.1,286047006.6,N,0.0,0.0
1487598195.9,286047010.8,N,0.0,0.0
1487598215.7,286047008.9,N,0.0,0.0
1487598235.5,286047006.2,N,0.0,0.0
1487598255.4,286047007.9,N,0.0,0.0
1487598275.2,286047009.8,N,0.0,0.0
1487598295.0,286047012.2,N,0.0,0.0
1487598295.9,286047012.2,N,0.0,0.0
1487598315.8,286047010.7,N,0.0,0.0
1487598335.6,286047013.6,N,0.0,0.0
1487598355.4,286047014.0,N,0.0,0.0
1487598375.3,286047012.0,N,0.0,0.0
1487598395.1,286047014.4,N,0.0,0.0
1487598415.8,286047017.1,N,0.0,0.0
1487598435.7,286047017.0,N,0.0,0.0
1487598455.5,286047012.9,N,0.0,0.0
1487598475.3,286047013.7,N,0.0,0.0
1487598495.2,286047012.9,N,0.0,0.0
1487598515.9,286047014.1,N,0.0,0.0
1487598535.7,286047016.7,N,0.0,0.0
1487598555.6,286047014.2,N,0.0,0.0
1487598575.4,286047015.8,N,0.0,0.0
1487598595.2,286047020.0,N,0.0,0.0
1487598615.0,286047014.7,N,0.0,0.0
1487598616.0,286047014.7,N,0.0,0.0
1487598635.8,286047016.9,N,0.0,0.0
1487598655.6,286047018.2,N,0.0,0.0
1487598675.4,286047017.6,N,0.0,0.0
1487598695.3,286047023.5,Y,0.0,0.0
1487598715.1,286047016.7,N,0.0,0.0
1487598735.9,286047014.9,N,0.0,0.0
1487598755.7,286047015.6,N,0.0,0.0
1487598775.5,286047011.0,N,0.0,0.0
1487598795.3,286047012.8,N,0.0,0.0
1487598815.2,286047016.0,N,0.0,0.0
1487598835.0,286047014.6,N,0.0,0.0
1487598835.9,286047014.6,N,0.0,0.0
1487598855.7,286047016.9,N,0.0,0.0
1487598875.6,286047017.0,N,0.0,0.0
1487598895.5,286047017.0,N,0.0,0.0
1487598915.3,286047017.7,Y,0.0,0.0
1487598935.2,286047009.1,N,0.0,0.0
1487598955.9,286047006.5,N,0.0,0.0
1487598975.7,286047008.7,N,0.0,0.0
1487598995.6,286047007.8,N,0.0,0.0
1487599015.4,286047009.6,N,0.0,0.0
1487599035.2,286047012.1,N,0.0,0.0
1487599055.1,286047011.4,N,0.0,0.0
1487599056.0,286047011.4,N,0.0,0.0
1487599075.8,286047014.0,Y,0.0,0.0
1487599095.6,286047000.3,N,0.0,0.0
1487599115.5,286047002.0,N,0.0,0.0
1487599135.3,286047000.6,N,0.0,0.0
1487599155.1,286047004.0,N,0.0,0.0
1487599175.9,286047000.1,N,0.0,0.0
1487599195.7,286047000.2,N,0.0,0.0
